ACA1352 CYYZ-TNCC

Flight info

Callsign ACA1352
Flight time 4h 40m
Altitude 35000
Route RIGUS5 PSB DCT EMI/N0459F360 Q119 SCOOB DCT EARZZ DCT SKARP AR22 IDOLS DCT RROOO Y323 CARPX Y307 NUCAR/N0457F370 Y355 RENAH Y397 SEKAR UL339 KARUM KARUM1B
Aircraft B38M/M-SDE1FGHILORVWXY/HB1

Departure

Time 2026-05-08 13:57
Airport Toronto Pearson International Airport (CYYZ)

Arrival

Time 2026-05-08 18:37
Airport Hato International Airport (TNCC)
Time Latitude Longitude Altitude Speed Heading
2026-05-08 12:53 43.67622 -79.61033 564 ft 0 kts 330°
2026-05-08 13:45 43.67607 -79.61020 570 ft 4 kts 330°
2026-05-08 13:46 43.67583 -79.61002 573 ft 4 kts 330°
2026-05-08 13:46 43.67561 -79.60982 564 ft 4 kts 321°
2026-05-08 13:46 43.67543 -79.60956 564 ft 4 kts 299°
2026-05-08 13:46 43.67538 -79.60926 570 ft 4 kts 245°
2026-05-08 13:47 43.67540 -79.60920 564 ft 2 kts 237°
2026-05-08 13:49 43.67539 -79.60921 564 ft 1 kts 237°
2026-05-08 13:49 43.67507 -79.60996 564 ft 10 kts 244°
2026-05-08 13:50 43.67491 -79.61061 564 ft 11 kts 256°
2026-05-08 13:50 43.67479 -79.61171 564 ft 12 kts 271°
2026-05-08 13:50 43.67450 -79.61276 567 ft 13 kts 210°
2026-05-08 13:50 43.67376 -79.61344 566 ft 13 kts 252°
2026-05-08 13:51 43.67419 -79.61444 568 ft 13 kts 316°
2026-05-08 13:51 43.67487 -79.61535 572 ft 14 kts 316°
2026-05-08 13:51 43.67561 -79.61632 570 ft 15 kts 317°
2026-05-08 13:51 43.67646 -79.61742 571 ft 18 kts 316°
2026-05-08 13:52 43.67742 -79.61869 565 ft 20 kts 316°
2026-05-08 13:52 43.67844 -79.62003 565 ft 21 kts 317°
2026-05-08 13:52 43.67967 -79.62102 571 ft 21 kts 325°
2026-05-08 13:52 43.68075 -79.62238 570 ft 22 kts 315°
2026-05-08 13:53 43.68183 -79.62384 568 ft 22 kts 315°
2026-05-08 13:53 43.68297 -79.62540 569 ft 23 kts 315°
2026-05-08 13:53 43.68419 -79.62671 571 ft 23 kts 317°
2026-05-08 13:53 43.68537 -79.62827 570 ft 24 kts 316°
2026-05-08 13:54 43.68661 -79.62988 564 ft 25 kts 316°
2026-05-08 13:54 43.68790 -79.63151 564 ft 25 kts 317°
2026-05-08 13:54 43.68919 -79.63319 566 ft 25 kts 316°
2026-05-08 13:54 43.69038 -79.63475 566 ft 19 kts 316°
2026-05-08 13:55 43.69126 -79.63517 574 ft 10 kts 33°
2026-05-08 13:55 43.69181 -79.63445 568 ft 12 kts 36°
2026-05-08 13:55 43.69369 -79.63439 564 ft 16 kts 331°
2026-05-08 13:56 43.69371 -79.63568 567 ft 17 kts 226°
2026-05-08 13:56 43.69176 -79.63854 567 ft 76 kts 226°
2026-05-08 13:56 43.68653 -79.64611 573 ft 140 kts 226°
2026-05-08 13:56 43.67855 -79.65759 646 ft 183 kts 225°
2026-05-08 13:57 43.66959 -79.67064 1315 ft 190 kts 229°
2026-05-08 13:57 43.66131 -79.68488 2176 ft 192 kts 234°
2026-05-08 13:57 43.65331 -79.70047 2662 ft 209 kts 236°
2026-05-08 13:57 43.64456 -79.71777 3013 ft 230 kts 236°
2026-05-08 13:58 43.63506 -79.73655 3583 ft 237 kts 237°
2026-05-08 13:58 43.62535 -79.75573 4179 ft 251 kts 236°
2026-05-08 13:58 43.61529 -79.77557 4832 ft 257 kts 235°
2026-05-08 13:58 43.60194 -79.79195 5580 ft 263 kts 207°
2026-05-08 13:59 43.59618 -79.79506 5829 ft 266 kts 198°
2026-05-08 13:59 43.59151 -79.79659 6009 ft 268 kts 191°
2026-05-08 13:59 43.57249 -79.79584 6669 ft 277 kts 168°
2026-05-08 13:59 43.55469 -79.78486 7339 ft 285 kts 150°
2026-05-08 14:00 43.53743 -79.77105 7997 ft 289 kts 152°
2026-05-08 14:00 43.51978 -79.75729 8665 ft 293 kts 152°
2026-05-08 14:00 43.50187 -79.74337 9311 ft 298 kts 152°
2026-05-08 14:00 43.48365 -79.72922 9931 ft 302 kts 153°
2026-05-08 14:01 43.46528 -79.71499 10396 ft 314 kts 153°
2026-05-08 14:01 43.44563 -79.69977 10625 ft 334 kts 153°
2026-05-08 14:01 43.42462 -79.68431 10878 ft 349 kts 162°
2026-05-08 14:01 43.40139 -79.67799 11347 ft 347 kts 183°
2026-05-08 14:02 43.37705 -79.67710 11970 ft 351 kts 184°
2026-05-08 14:02 43.35260 -79.67626 12639 ft 354 kts 184°
2026-05-08 14:02 43.32783 -79.67556 13301 ft 357 kts 185°
2026-05-08 14:02 43.30424 -79.67497 13924 ft 360 kts 185°
2026-05-08 14:03 43.27907 -79.67437 14588 ft 363 kts 185°
2026-05-08 14:03 43.25448 -79.67381 15221 ft 366 kts 185°
2026-05-08 14:03 43.22890 -79.67345 15857 ft 370 kts 186°
2026-05-08 14:03 43.20304 -79.67310 16500 ft 372 kts 186°
2026-05-08 14:04 43.17696 -79.67275 17079 ft 377 kts 186°
2026-05-08 14:04 43.15061 -79.67237 17672 ft 380 kts 186°
2026-05-08 14:04 43.12403 -79.67200 18233 ft 383 kts 186°
2026-05-08 14:04 43.09724 -79.67163 18771 ft 387 kts 187°
2026-05-08 14:05 43.07014 -79.67125 19269 ft 391 kts 187°
2026-05-08 14:05 43.04309 -79.67088 19755 ft 395 kts 187°
2026-05-08 14:05 43.01533 -79.67049 20243 ft 400 kts 187°
2026-05-08 14:05 42.98738 -79.67009 20736 ft 403 kts 187°
2026-05-08 14:06 42.95925 -79.66970 21203 ft 407 kts 187°
2026-05-08 14:06 42.93076 -79.66930 21647 ft 411 kts 188°
2026-05-08 14:06 42.90203 -79.66890 22113 ft 414 kts 188°
2026-05-08 14:06 42.87307 -79.66851 22535 ft 418 kts 188°
2026-05-08 14:07 42.84419 -79.67093 22941 ft 415 kts 194°
2026-05-08 14:07 42.81560 -79.67446 23338 ft 419 kts 194°
2026-05-08 14:07 42.78641 -79.67780 23742 ft 423 kts 193°
2026-05-08 14:07 42.75752 -79.68094 24149 ft 426 kts 193°
2026-05-08 14:08 42.72787 -79.68409 24544 ft 429 kts 193°
2026-05-08 14:08 42.69860 -79.68718 24957 ft 430 kts 194°
2026-05-08 14:08 42.66861 -79.69034 25348 ft 433 kts 193°
2026-05-08 14:08 42.63905 -79.69345 25711 ft 435 kts 194°
2026-05-08 14:09 42.60878 -79.69662 26110 ft 437 kts 194°
2026-05-08 14:09 42.57891 -79.69975 26460 ft 439 kts 194°
2026-05-08 14:09 42.54841 -79.70295 26837 ft 441 kts 194°
2026-05-08 14:09 42.51771 -79.70616 27177 ft 443 kts 194°
2026-05-08 14:10 42.48683 -79.70939 27508 ft 445 kts 194°
2026-05-08 14:10 42.45628 -79.71258 27868 ft 447 kts 194°
2026-05-08 14:10 42.42523 -79.71582 28213 ft 448 kts 194°
2026-05-08 14:10 42.39410 -79.71906 28525 ft 450 kts 194°
2026-05-08 14:11 42.36275 -79.72199 28827 ft 456 kts 190°
2026-05-08 14:11 42.33054 -79.71718 29218 ft 475 kts 174°
2026-05-08 14:11 42.29915 -79.70109 29548 ft 492 kts 158°
2026-05-08 14:11 42.27099 -79.67386 29864 ft 506 kts 142°
2026-05-08 14:12 42.24556 -79.64054 30147 ft 509 kts 142°
2026-05-08 14:12 42.21968 -79.60766 30357 ft 512 kts 142°
2026-05-08 14:12 42.19370 -79.57463 30653 ft 513 kts 142°
2026-05-08 14:12 42.16770 -79.54153 30921 ft 515 kts 142°
2026-05-08 14:13 42.14161 -79.50835 31168 ft 517 kts 142°
2026-05-08 14:13 42.11572 -79.47546 31440 ft 518 kts 142°
2026-05-08 14:13 42.08938 -79.44205 31666 ft 521 kts 142°
2026-05-08 14:13 42.06290 -79.40850 31926 ft 522 kts 142°
2026-05-08 14:14 42.03646 -79.37501 32184 ft 523 kts 142°
2026-05-08 14:14 42.00991 -79.34145 32450 ft 524 kts 142°
2026-05-08 14:14 41.98327 -79.30781 32775 ft 524 kts 143°
2026-05-08 14:14 41.95665 -79.27424 33107 ft 523 kts 143°
2026-05-08 14:15 41.93011 -79.24081 33408 ft 523 kts 143°
2026-05-08 14:15 41.90388 -79.20782 33729 ft 522 kts 143°
2026-05-08 14:15 41.87735 -79.17448 34009 ft 522 kts 143°
2026-05-08 14:15 41.85091 -79.14129 34318 ft 521 kts 143°
2026-05-08 14:16 41.82440 -79.10804 34599 ft 521 kts 144°
2026-05-08 14:16 41.79793 -79.07490 34887 ft 520 kts 144°
2026-05-08 14:16 41.77143 -79.04175 34982 ft 521 kts 144°
2026-05-08 14:17 41.71843 -78.97558 34965 ft 519 kts 144°
2026-05-08 14:17 41.66550 -78.90967 34963 ft 519 kts 144°
2026-05-08 14:18 41.61251 -78.84383 34967 ft 520 kts 144°
2026-05-08 14:18 41.55958 -78.77820 34960 ft 519 kts 144°
2026-05-08 14:19 41.50678 -78.71290 34960 ft 519 kts 144°
2026-05-08 14:19 41.45373 -78.64743 34967 ft 519 kts 144°
2026-05-08 14:20 41.40064 -78.58209 34956 ft 519 kts 144°
2026-05-08 14:20 41.34751 -78.51682 34949 ft 520 kts 144°
2026-05-08 14:21 41.29457 -78.45196 34968 ft 520 kts 144°
2026-05-08 14:21 41.24130 -78.38684 34960 ft 520 kts 144°
2026-05-08 14:22 41.18805 -78.32188 34963 ft 520 kts 144°
2026-05-08 14:22 41.13477 -78.25705 34961 ft 519 kts 145°
2026-05-08 14:23 41.08147 -78.19235 34959 ft 519 kts 145°
2026-05-08 14:23 41.02814 -78.12773 34965 ft 519 kts 145°
2026-05-08 14:24 40.97487 -78.06332 34974 ft 518 kts 145°
2026-05-08 14:24 40.92126 -77.99952 34969 ft 513 kts 151°
2026-05-08 14:24 40.89148 -77.97534 35001 ft 497 kts 161°
2026-05-08 14:25 40.86147 -77.95323 34966 ft 502 kts 160°
2026-05-08 14:25 40.80061 -77.90836 34980 ft 500 kts 160°
2026-05-08 14:26 40.74078 -77.86484 34981 ft 500 kts 161°
2026-05-08 14:26 40.67974 -77.82052 34985 ft 500 kts 161°
2026-05-08 14:27 40.61913 -77.77661 34999 ft 500 kts 161°
2026-05-08 14:27 40.55816 -77.73255 34998 ft 499 kts 161°
2026-05-08 14:28 40.49713 -77.68853 35004 ft 499 kts 161°
2026-05-08 14:28 40.43658 -77.64495 34982 ft 499 kts 161°
2026-05-08 14:29 40.37561 -77.60115 34987 ft 499 kts 161°
2026-05-08 14:29 40.31470 -77.55748 35000 ft 499 kts 161°
2026-05-08 14:30 40.25376 -77.51390 35009 ft 499 kts 161°
2026-05-08 14:30 40.19307 -77.47057 35010 ft 499 kts 161°
2026-05-08 14:31 40.13206 -77.42711 35016 ft 499 kts 161°
2026-05-08 14:31 40.07093 -77.38366 35017 ft 498 kts 161°
2026-05-08 14:32 39.97971 -77.31899 35027 ft 497 kts 162°
2026-05-08 14:32 39.91904 -77.27607 35030 ft 499 kts 162°
2026-05-08 14:33 39.85803 -77.23301 35027 ft 499 kts 162°
2026-05-08 14:33 39.79689 -77.18994 35027 ft 500 kts 162°
2026-05-08 14:34 39.73573 -77.14694 35024 ft 500 kts 162°
2026-05-08 14:34 39.67432 -77.10387 35034 ft 502 kts 162°
2026-05-08 14:35 39.61284 -77.06081 35035 ft 502 kts 162°
2026-05-08 14:35 39.55163 -77.01803 35037 ft 502 kts 162°
2026-05-08 14:36 39.48895 -76.98024 35024 ft 481 kts 179°
2026-05-08 14:36 39.42380 -76.96586 35041 ft 474 kts 183°
2026-05-08 14:37 39.36969 -76.95515 35044 ft 473 kts 184°
2026-05-08 14:37 39.30440 -76.94283 35056 ft 473 kts 184°
2026-05-08 14:38 39.22873 -76.92869 35074 ft 473 kts 185°
2026-05-08 14:38 39.17415 -76.91852 35073 ft 473 kts 185°
2026-05-08 14:39 39.10938 -76.90646 35073 ft 473 kts 185°
2026-05-08 14:39 39.04614 -76.89471 35075 ft 473 kts 185°
2026-05-08 14:40 38.98094 -76.88262 35073 ft 473 kts 185°
2026-05-08 14:40 38.91572 -76.87055 35069 ft 473 kts 185°
2026-05-08 14:41 38.85040 -76.85848 35074 ft 473 kts 185°
2026-05-08 14:41 38.78517 -76.84645 35068 ft 473 kts 185°
2026-05-08 14:42 38.71986 -76.83443 35078 ft 473 kts 186°
2026-05-08 14:42 38.65515 -76.82254 35078 ft 473 kts 186°
2026-05-08 14:43 38.58985 -76.81057 35081 ft 474 kts 186°
2026-05-08 14:43 38.52428 -76.79856 35083 ft 476 kts 186°
2026-05-08 14:44 38.45874 -76.78659 35081 ft 476 kts 186°
2026-05-08 14:44 38.39322 -76.77464 35098 ft 476 kts 186°
2026-05-08 14:45 38.32804 -76.76277 35086 ft 475 kts 186°
2026-05-08 14:45 38.26254 -76.75086 35089 ft 476 kts 186°
2026-05-08 14:46 38.19733 -76.73902 35099 ft 469 kts 186°
2026-05-08 14:46 38.13279 -76.72735 35100 ft 468 kts 186°
2026-05-08 14:47 38.06822 -76.71568 35101 ft 468 kts 187°
2026-05-08 14:47 38.00406 -76.70410 35110 ft 468 kts 187°
2026-05-08 14:48 37.93944 -76.69246 35110 ft 468 kts 187°
2026-05-08 14:48 37.88837 -76.68327 35299 ft 468 kts 187°
2026-05-08 14:49 37.85618 -76.67749 35625 ft 466 kts 187°
2026-05-08 14:49 37.82396 -76.67171 35844 ft 466 kts 187°
2026-05-08 14:49 37.79223 -76.66601 36068 ft 466 kts 187°
2026-05-08 14:49 37.76007 -76.66026 36127 ft 467 kts 187°
2026-05-08 14:50 37.69583 -76.64877 36106 ft 465 kts 187°
2026-05-08 14:50 37.63163 -76.63731 36112 ft 465 kts 187°
2026-05-08 14:51 37.56917 -76.63437 36122 ft 431 kts 202°
2026-05-08 14:51 37.50899 -76.64189 36117 ft 435 kts 201°
2026-05-08 14:52 37.41889 -76.65402 36116 ft 433 kts 202°
2026-05-08 14:53 37.35930 -76.66215 36112 ft 434 kts 202°
2026-05-08 14:53 37.29912 -76.67036 36113 ft 436 kts 202°
2026-05-08 14:54 37.23880 -76.67857 36109 ft 435 kts 202°
2026-05-08 14:54 37.17856 -76.68676 36108 ft 435 kts 202°
2026-05-08 14:55 37.11823 -76.69494 36110 ft 435 kts 202°
2026-05-08 14:55 37.05839 -76.70304 36107 ft 434 kts 202°
2026-05-08 14:56 36.99815 -76.71119 36113 ft 435 kts 202°
2026-05-08 14:56 36.93792 -76.71932 36114 ft 435 kts 202°
2026-05-08 14:57 36.87770 -76.72744 36120 ft 435 kts 202°
2026-05-08 14:57 36.81792 -76.73548 36119 ft 434 kts 202°
2026-05-08 14:58 36.75769 -76.74358 36131 ft 435 kts 202°
2026-05-08 14:58 36.69737 -76.75167 36130 ft 434 kts 202°
2026-05-08 14:59 36.63759 -76.75967 36125 ft 434 kts 202°
2026-05-08 14:59 36.54739 -76.77174 36128 ft 434 kts 202°
2026-05-08 15:00 36.48731 -76.77975 36134 ft 434 kts 202°
2026-05-08 15:00 36.42713 -76.78777 36126 ft 434 kts 202°
2026-05-08 15:01 36.36700 -76.79577 36132 ft 434 kts 202°
2026-05-08 15:01 36.30722 -76.80371 36133 ft 434 kts 202°
2026-05-08 15:02 36.24675 -76.81173 36131 ft 434 kts 202°
2026-05-08 15:02 36.18702 -76.81963 36125 ft 434 kts 202°
2026-05-08 15:03 36.12691 -76.82758 36127 ft 434 kts 202°
2026-05-08 15:03 36.06682 -76.83551 36130 ft 434 kts 202°
2026-05-08 15:04 36.00671 -76.84343 36129 ft 434 kts 202°
2026-05-08 15:04 35.94655 -76.85135 36127 ft 435 kts 202°
2026-05-08 15:05 35.88922 -76.86510 36131 ft 407 kts 214°
2026-05-08 15:05 35.83480 -76.88631 36125 ft 410 kts 213°
2026-05-08 15:06 35.78031 -76.90776 36130 ft 410 kts 213°
2026-05-08 15:06 35.72645 -76.92901 36123 ft 407 kts 214°
2026-05-08 15:07 35.67245 -76.95030 36124 ft 407 kts 214°
2026-05-08 15:07 35.61831 -76.97161 36132 ft 409 kts 214°
2026-05-08 15:08 35.57318 -76.98935 36131 ft 410 kts 214°
2026-05-08 15:08 35.51002 -77.01414 36126 ft 410 kts 214°
2026-05-08 15:09 35.45566 -77.03544 36132 ft 410 kts 214°
2026-05-08 15:09 35.40131 -77.05671 36129 ft 410 kts 214°
2026-05-08 15:10 35.34690 -77.07798 36132 ft 410 kts 214°
2026-05-08 15:10 35.29290 -77.09905 36127 ft 410 kts 214°
2026-05-08 15:11 35.23843 -77.12028 36130 ft 410 kts 213°
2026-05-08 15:11 35.18404 -77.14145 36131 ft 410 kts 213°
2026-05-08 15:12 35.12956 -77.16262 36132 ft 410 kts 213°
2026-05-08 15:12 35.07506 -77.18377 36131 ft 411 kts 213°
2026-05-08 15:13 35.02053 -77.20490 36131 ft 411 kts 213°
2026-05-08 15:13 34.96641 -77.22584 36129 ft 411 kts 213°
2026-05-08 15:14 34.91176 -77.24696 36121 ft 411 kts 213°
2026-05-08 15:14 34.85725 -77.26800 36117 ft 411 kts 213°
2026-05-08 15:15 34.80265 -77.28905 36110 ft 412 kts 213°
2026-05-08 15:15 34.74781 -77.31015 36112 ft 414 kts 213°
2026-05-08 15:16 34.69291 -77.33125 36110 ft 414 kts 213°
2026-05-08 15:16 34.63826 -77.35222 36105 ft 414 kts 213°
2026-05-08 15:17 34.58320 -77.37332 36109 ft 414 kts 213°
2026-05-08 15:17 34.52835 -77.39432 36107 ft 413 kts 213°
2026-05-08 15:18 34.47276 -77.41290 36108 ft 429 kts 204°
2026-05-08 15:18 34.41375 -77.42459 36108 ft 429 kts 205°
2026-05-08 15:19 34.35468 -77.43620 36110 ft 430 kts 205°
2026-05-08 15:19 34.29592 -77.44769 36111 ft 430 kts 205°
2026-05-08 15:20 34.23683 -77.45922 36115 ft 430 kts 205°
2026-05-08 15:20 34.17775 -77.47075 36117 ft 430 kts 205°
2026-05-08 15:21 34.11835 -77.48231 36118 ft 432 kts 205°
2026-05-08 15:21 34.05896 -77.49385 36121 ft 432 kts 205°
2026-05-08 15:22 33.99990 -77.50532 36115 ft 432 kts 205°
2026-05-08 15:22 33.94040 -77.51685 36111 ft 433 kts 205°
2026-05-08 15:23 33.88073 -77.52840 36118 ft 434 kts 205°
2026-05-08 15:23 33.82109 -77.53993 36121 ft 433 kts 205°
2026-05-08 15:24 33.76149 -77.55144 36109 ft 433 kts 205°
2026-05-08 15:24 33.70227 -77.56285 36107 ft 434 kts 204°
2026-05-08 15:25 33.64260 -77.57434 36111 ft 434 kts 204°
2026-05-08 15:25 33.58463 -77.58525 36108 ft 439 kts 201°
2026-05-08 15:26 33.53310 -77.58871 36112 ft 448 kts 198°
2026-05-08 15:26 33.46061 -77.59266 36110 ft 448 kts 198°
2026-05-08 15:27 33.39822 -77.59598 36108 ft 448 kts 197°
2026-05-08 15:27 33.34651 -77.59873 36109 ft 447 kts 197°
2026-05-08 15:28 33.28429 -77.60203 36108 ft 447 kts 197°
2026-05-08 15:28 33.22209 -77.60533 36108 ft 448 kts 197°
2026-05-08 15:29 33.15959 -77.60863 36109 ft 448 kts 197°
2026-05-08 15:29 33.09730 -77.61193 36111 ft 448 kts 197°
2026-05-08 15:30 33.03497 -77.61522 36109 ft 449 kts 197°
2026-05-08 15:30 32.97251 -77.61851 36110 ft 449 kts 197°
2026-05-08 15:31 32.91002 -77.62180 36111 ft 449 kts 196°
2026-05-08 15:31 32.84786 -77.62506 36110 ft 450 kts 196°
2026-05-08 15:32 32.78522 -77.62835 36111 ft 450 kts 196°
2026-05-08 15:32 32.72259 -77.63163 36113 ft 449 kts 196°
2026-05-08 15:33 32.66021 -77.63490 36110 ft 449 kts 196°
2026-05-08 15:33 32.59781 -77.63816 36109 ft 449 kts 196°
2026-05-08 15:34 32.53574 -77.64140 36109 ft 449 kts 195°
2026-05-08 15:34 32.47324 -77.64466 36112 ft 449 kts 195°
2026-05-08 15:35 32.41078 -77.64791 36110 ft 448 kts 195°
2026-05-08 15:35 32.34844 -77.65115 36111 ft 448 kts 195°
2026-05-08 15:36 32.28632 -77.65437 36112 ft 449 kts 195°
2026-05-08 15:36 32.22394 -77.65760 36106 ft 448 kts 195°
2026-05-08 15:37 32.16155 -77.66083 36101 ft 448 kts 195°
2026-05-08 15:37 32.09909 -77.66406 36097 ft 449 kts 195°
2026-05-08 15:38 32.03667 -77.66729 36102 ft 449 kts 195°
2026-05-08 15:38 31.97469 -77.67048 36103 ft 448 kts 195°
2026-05-08 15:39 31.91241 -77.67369 36101 ft 448 kts 195°
2026-05-08 15:39 31.85012 -77.67690 36102 ft 448 kts 195°
2026-05-08 15:40 31.78788 -77.68010 36100 ft 449 kts 195°
2026-05-08 15:40 31.72529 -77.68331 36100 ft 449 kts 195°
2026-05-08 15:41 31.66315 -77.68650 36101 ft 450 kts 195°
2026-05-08 15:41 31.60058 -77.68970 36101 ft 450 kts 195°
2026-05-08 15:42 31.53795 -77.69291 36107 ft 450 kts 194°
2026-05-08 15:42 31.47532 -77.69611 36107 ft 450 kts 194°
2026-05-08 15:43 31.41309 -77.69928 36107 ft 450 kts 194°
2026-05-08 15:43 31.35032 -77.70248 36108 ft 452 kts 194°
2026-05-08 15:44 31.28740 -77.70568 36108 ft 452 kts 194°
2026-05-08 15:44 31.22446 -77.70887 36108 ft 452 kts 194°
2026-05-08 15:45 31.16146 -77.71207 36111 ft 453 kts 194°
2026-05-08 15:45 31.09847 -77.71526 36109 ft 453 kts 194°
2026-05-08 15:46 31.03579 -77.71843 36109 ft 453 kts 194°
2026-05-08 15:46 30.97266 -77.72162 36109 ft 454 kts 193°
2026-05-08 15:47 30.90928 -77.72483 36109 ft 455 kts 193°
2026-05-08 15:47 30.84585 -77.72802 36102 ft 456 kts 193°
2026-05-08 15:48 30.75117 -77.73279 36092 ft 456 kts 193°
2026-05-08 15:49 30.68772 -77.73597 36091 ft 456 kts 193°
2026-05-08 15:49 30.62423 -77.73916 36092 ft 456 kts 193°
2026-05-08 15:50 30.56072 -77.74234 36092 ft 457 kts 192°
2026-05-08 15:50 30.49715 -77.74552 36093 ft 457 kts 192°
2026-05-08 15:51 30.45506 -77.74762 36088 ft 457 kts 192°
2026-05-08 15:51 30.40008 -77.74902 36085 ft 465 kts 185°
2026-05-08 15:52 30.33581 -77.74478 36091 ft 465 kts 187°
2026-05-08 15:52 30.27125 -77.74139 36093 ft 464 kts 187°
2026-05-08 15:53 30.20663 -77.73812 36084 ft 464 kts 187°
2026-05-08 15:53 30.14238 -77.73488 36083 ft 464 kts 187°
2026-05-08 15:54 30.07774 -77.73163 36082 ft 464 kts 187°
2026-05-08 15:54 30.01302 -77.72838 36082 ft 464 kts 187°
2026-05-08 15:55 29.94884 -77.72517 36084 ft 464 kts 187°
2026-05-08 15:55 29.85185 -77.72031 36075 ft 464 kts 187°
2026-05-08 15:56 29.78718 -77.71708 36073 ft 466 kts 187°
2026-05-08 15:56 29.72274 -77.71386 36073 ft 466 kts 187°
2026-05-08 15:57 29.65800 -77.71064 36074 ft 466 kts 187°
2026-05-08 15:57 29.59326 -77.70741 36073 ft 466 kts 187°
2026-05-08 15:58 29.52842 -77.70419 36073 ft 466 kts 186°
2026-05-08 15:58 29.46354 -77.70086 36071 ft 466 kts 186°
2026-05-08 15:59 29.39911 -77.69755 36065 ft 466 kts 186°
2026-05-08 15:59 29.33421 -77.69422 36065 ft 467 kts 186°
2026-05-08 16:00 29.26925 -77.69089 36078 ft 467 kts 186°
2026-05-08 16:00 29.20419 -77.68756 36081 ft 467 kts 186°
2026-05-08 16:01 29.13914 -77.68420 36082 ft 468 kts 185°
2026-05-08 16:01 29.07451 -77.68065 36081 ft 467 kts 185°
2026-05-08 16:02 29.00935 -77.67710 36084 ft 469 kts 185°
2026-05-08 16:02 28.94417 -77.67355 36082 ft 469 kts 185°
2026-05-08 16:03 28.87887 -77.67000 36084 ft 470 kts 185°
2026-05-08 16:03 28.81441 -77.66650 36082 ft 470 kts 185°
2026-05-08 16:04 28.74945 -77.66298 36083 ft 470 kts 185°
2026-05-08 16:04 28.68407 -77.65943 36081 ft 470 kts 185°
2026-05-08 16:05 28.61867 -77.65590 36077 ft 470 kts 185°
2026-05-08 16:05 28.55359 -77.65247 36073 ft 470 kts 185°
2026-05-08 16:06 28.48810 -77.64952 36074 ft 470 kts 185°
2026-05-08 16:06 28.42300 -77.64654 36063 ft 470 kts 185°
2026-05-08 16:07 28.35760 -77.64355 36068 ft 470 kts 185°
2026-05-08 16:07 28.29220 -77.64056 36062 ft 470 kts 185°
2026-05-08 16:08 28.22679 -77.63757 36061 ft 470 kts 184°
2026-05-08 16:08 28.16134 -77.63277 36048 ft 478 kts 174°
2026-05-08 16:09 28.12941 -77.62106 36061 ft 489 kts 159°
2026-05-08 16:09 28.10971 -77.60828 36065 ft 497 kts 149°
2026-05-08 16:09 28.07539 -77.57241 36071 ft 506 kts 138°
2026-05-08 16:09 28.05082 -77.54375 36062 ft 507 kts 138°
2026-05-08 16:10 28.00356 -77.48831 36066 ft 508 kts 138°
2026-05-08 16:10 27.95466 -77.43069 36066 ft 507 kts 137°
2026-05-08 16:11 27.90583 -77.37323 36073 ft 505 kts 137°
2026-05-08 16:11 27.85708 -77.31594 36073 ft 506 kts 137°
2026-05-08 16:12 27.80824 -77.25862 36073 ft 505 kts 137°
2026-05-08 16:12 27.75978 -77.20183 36075 ft 505 kts 137°
2026-05-08 16:13 27.71093 -77.14466 36073 ft 504 kts 137°
2026-05-08 16:13 27.66216 -77.08766 36074 ft 504 kts 137°
2026-05-08 16:14 27.61331 -77.03065 36073 ft 505 kts 137°
2026-05-08 16:14 27.56486 -76.97418 36073 ft 504 kts 137°
2026-05-08 16:15 27.51604 -76.91736 36071 ft 504 kts 137°
2026-05-08 16:15 27.46718 -76.86057 36071 ft 504 kts 137°
2026-05-08 16:16 27.41839 -76.80393 36072 ft 504 kts 137°
2026-05-08 16:16 27.37777 -76.75683 36074 ft 504 kts 137°
2026-05-08 16:17 27.32900 -76.70036 36072 ft 503 kts 137°
2026-05-08 16:17 27.28016 -76.64388 36072 ft 504 kts 137°
2026-05-08 16:18 27.23119 -76.58734 36072 ft 504 kts 137°
2026-05-08 16:18 27.18235 -76.53100 36073 ft 503 kts 137°
2026-05-08 16:19 27.13347 -76.47470 36073 ft 503 kts 137°
2026-05-08 16:19 27.08461 -76.41848 36079 ft 503 kts 137°
2026-05-08 16:20 27.03614 -76.36179 36082 ft 503 kts 136°
2026-05-08 16:20 26.98794 -76.30517 36081 ft 502 kts 136°
2026-05-08 16:21 26.93999 -76.24893 36082 ft 502 kts 136°
2026-05-08 16:21 26.89176 -76.19244 36083 ft 501 kts 136°
2026-05-08 16:22 26.84354 -76.13605 36082 ft 501 kts 136°
2026-05-08 16:22 26.79533 -76.07973 36081 ft 500 kts 136°
2026-05-08 16:23 26.74719 -76.02356 36084 ft 500 kts 136°
2026-05-08 16:23 26.69899 -75.96741 36082 ft 499 kts 136°
2026-05-08 16:24 26.65083 -75.91137 36081 ft 499 kts 136°
2026-05-08 16:24 26.60300 -75.85579 36083 ft 499 kts 136°
2026-05-08 16:25 26.55493 -75.80001 36082 ft 498 kts 136°
2026-05-08 16:25 26.50679 -75.74422 36084 ft 498 kts 136°
2026-05-08 16:26 26.45869 -75.68854 36083 ft 497 kts 136°
2026-05-08 16:26 26.41058 -75.63292 36083 ft 498 kts 136°
2026-05-08 16:27 26.36249 -75.57740 36081 ft 497 kts 136°
2026-05-08 16:27 26.31462 -75.52220 36083 ft 498 kts 136°
2026-05-08 16:28 26.26644 -75.46672 36083 ft 498 kts 136°
2026-05-08 16:28 26.21812 -75.41113 36174 ft 499 kts 136°
2026-05-08 16:29 26.19396 -75.38338 36433 ft 498 kts 136°
2026-05-08 16:29 26.17008 -75.35594 36650 ft 499 kts 136°
2026-05-08 16:29 26.14588 -75.32817 36914 ft 497 kts 136°
2026-05-08 16:29 26.12176 -75.30051 37114 ft 496 kts 136°
2026-05-08 16:30 26.07394 -75.24572 37094 ft 489 kts 136°
2026-05-08 16:30 26.02654 -75.19147 37083 ft 489 kts 136°
2026-05-08 16:31 25.97911 -75.13726 37085 ft 489 kts 136°
2026-05-08 16:31 25.93189 -75.08335 37079 ft 485 kts 136°
2026-05-08 16:32 25.88511 -75.03002 37082 ft 484 kts 136°
2026-05-08 16:32 25.83803 -74.97641 37081 ft 484 kts 136°
2026-05-08 16:33 25.79092 -74.92282 37081 ft 484 kts 136°
2026-05-08 16:33 25.74382 -74.86931 37074 ft 484 kts 136°
2026-05-08 16:34 25.69672 -74.81587 37075 ft 484 kts 136°
2026-05-08 16:34 25.64987 -74.76278 37073 ft 484 kts 136°
2026-05-08 16:35 25.60275 -74.70943 37073 ft 484 kts 136°
2026-05-08 16:35 25.55556 -74.65608 37073 ft 484 kts 136°
2026-05-08 16:36 25.50844 -74.60287 37073 ft 484 kts 136°
2026-05-08 16:36 25.46154 -74.54996 37073 ft 484 kts 136°
2026-05-08 16:37 25.41427 -74.49672 37073 ft 484 kts 136°
2026-05-08 16:37 25.36707 -74.44360 37074 ft 484 kts 136°
2026-05-08 16:38 25.31992 -74.39061 37073 ft 483 kts 136°
2026-05-08 16:38 25.27278 -74.33769 37072 ft 482 kts 136°
2026-05-08 16:39 25.22562 -74.28482 37073 ft 482 kts 136°
2026-05-08 16:39 25.17877 -74.23235 37074 ft 482 kts 136°
2026-05-08 16:40 25.13163 -74.17961 37072 ft 481 kts 136°
2026-05-08 16:40 25.08457 -74.12703 37073 ft 482 kts 136°
2026-05-08 16:41 25.03749 -74.07449 37068 ft 481 kts 136°
2026-05-08 16:42 24.96687 -73.99579 37064 ft 480 kts 136°
2026-05-08 16:42 24.91983 -73.94344 37064 ft 480 kts 136°
2026-05-08 16:43 24.87311 -73.89151 37064 ft 481 kts 136°
2026-05-08 16:43 24.82605 -73.83926 37066 ft 480 kts 136°
2026-05-08 16:44 24.77905 -73.78712 37063 ft 479 kts 136°
2026-05-08 16:44 24.73200 -73.73499 37064 ft 480 kts 135°
2026-05-08 16:45 24.68495 -73.68291 37063 ft 479 kts 136°
2026-05-08 16:45 24.63788 -73.63088 37064 ft 479 kts 136°
2026-05-08 16:46 24.59120 -73.57933 37064 ft 479 kts 136°
2026-05-08 16:46 24.53945 -73.53413 37078 ft 475 kts 149°
2026-05-08 16:47 24.48352 -73.49511 37062 ft 476 kts 149°
2026-05-08 16:47 24.42742 -73.45644 37063 ft 476 kts 149°
2026-05-08 16:48 24.37121 -73.41782 37054 ft 476 kts 149°
2026-05-08 16:48 24.31503 -73.37926 37057 ft 476 kts 149°
2026-05-08 16:49 24.25909 -73.34091 37057 ft 476 kts 149°
2026-05-08 16:49 24.20288 -73.30241 37053 ft 476 kts 149°
2026-05-08 16:50 24.14654 -73.26386 37055 ft 476 kts 149°
2026-05-08 16:50 24.09026 -73.22539 37053 ft 476 kts 149°
2026-05-08 16:51 24.03399 -73.18698 37058 ft 476 kts 149°
2026-05-08 16:51 23.97813 -73.14887 37055 ft 476 kts 149°
2026-05-08 16:52 23.92195 -73.11060 37057 ft 475 kts 149°
2026-05-08 16:52 23.86588 -73.07244 37056 ft 475 kts 149°
2026-05-08 16:53 23.78173 -73.01524 37054 ft 475 kts 149°
2026-05-08 16:53 23.72554 -72.97709 37055 ft 475 kts 149°
2026-05-08 16:54 23.66932 -72.93896 37055 ft 475 kts 149°
2026-05-08 16:54 23.61355 -72.90118 37053 ft 475 kts 149°
2026-05-08 16:55 23.55738 -72.86316 37055 ft 475 kts 149°
2026-05-08 16:55 23.50116 -72.82515 37054 ft 476 kts 149°
2026-05-08 16:56 23.44473 -72.78704 37055 ft 476 kts 149°
2026-05-08 16:56 23.38833 -72.74899 37054 ft 476 kts 149°
2026-05-08 16:57 23.33202 -72.71103 37054 ft 476 kts 149°
2026-05-08 16:57 23.27599 -72.67331 37047 ft 476 kts 149°
2026-05-08 16:58 23.21963 -72.63539 37047 ft 476 kts 149°
2026-05-08 16:58 23.16321 -72.59748 37045 ft 476 kts 149°
2026-05-08 16:59 23.10684 -72.55963 37050 ft 476 kts 149°
2026-05-08 16:59 23.05037 -72.52176 37048 ft 476 kts 149°
2026-05-08 17:00 22.99441 -72.48426 37049 ft 475 kts 149°
2026-05-08 17:00 22.93798 -72.44649 37044 ft 475 kts 149°
2026-05-08 17:01 22.88163 -72.40882 37046 ft 476 kts 148°
2026-05-08 17:01 22.82556 -72.37136 37047 ft 476 kts 148°
2026-05-08 17:02 22.76914 -72.33371 37043 ft 476 kts 148°
2026-05-08 17:02 22.71274 -72.29610 37047 ft 476 kts 148°
2026-05-08 17:03 22.65671 -72.25879 37047 ft 476 kts 148°
2026-05-08 17:03 22.60027 -72.22123 37046 ft 476 kts 148°
2026-05-08 17:04 22.54383 -72.18372 37047 ft 477 kts 148°
2026-05-08 17:04 22.48726 -72.14615 37043 ft 477 kts 148°
2026-05-08 17:05 22.44020 -72.11492 37046 ft 477 kts 148°
2026-05-08 17:05 22.38365 -72.07743 37048 ft 477 kts 148°
2026-05-08 17:06 22.32704 -72.03994 37044 ft 477 kts 148°
2026-05-08 17:06 22.27042 -72.00247 37047 ft 477 kts 148°
2026-05-08 17:07 22.21417 -71.96530 37043 ft 477 kts 148°
2026-05-08 17:07 22.15756 -71.92791 37043 ft 477 kts 148°
2026-05-08 17:08 22.10093 -71.89055 37045 ft 477 kts 148°
2026-05-08 17:08 22.04432 -71.85324 37049 ft 477 kts 148°
2026-05-08 17:09 21.98798 -71.81613 37047 ft 477 kts 148°
2026-05-08 17:09 21.93136 -71.77888 37044 ft 477 kts 148°
2026-05-08 17:10 21.87467 -71.74162 37048 ft 477 kts 148°
2026-05-08 17:10 21.81787 -71.70433 37046 ft 477 kts 148°
2026-05-08 17:11 21.76164 -71.66744 37043 ft 477 kts 148°
2026-05-08 17:11 21.70501 -71.63032 37045 ft 476 kts 148°
2026-05-08 17:12 21.64848 -71.59330 37043 ft 476 kts 148°
2026-05-08 17:12 21.59188 -71.55628 37048 ft 476 kts 148°
2026-05-08 17:13 21.53527 -71.51927 37046 ft 476 kts 148°
2026-05-08 17:13 21.47872 -71.48235 37042 ft 476 kts 148°
2026-05-08 17:14 21.42217 -71.44546 37047 ft 476 kts 148°
2026-05-08 17:14 21.36594 -71.40881 37043 ft 476 kts 148°
2026-05-08 17:15 21.30920 -71.37186 37049 ft 476 kts 148°
2026-05-08 17:15 21.25261 -71.33504 37044 ft 475 kts 148°
2026-05-08 17:16 21.19613 -71.29833 37046 ft 475 kts 148°
2026-05-08 17:16 21.14002 -71.26189 37043 ft 475 kts 148°
2026-05-08 17:17 21.08347 -71.22519 37047 ft 474 kts 148°
2026-05-08 17:17 21.02691 -71.18853 37048 ft 474 kts 148°
2026-05-08 17:18 20.97043 -71.15195 37044 ft 474 kts 148°
2026-05-08 17:18 20.91394 -71.11540 37046 ft 474 kts 148°
2026-05-08 17:19 20.85747 -71.07889 37046 ft 474 kts 148°
2026-05-08 17:19 20.80099 -71.04240 37034 ft 474 kts 148°
2026-05-08 17:20 20.74449 -71.00593 37037 ft 474 kts 148°
2026-05-08 17:20 20.68812 -70.96958 37033 ft 473 kts 148°
2026-05-08 17:21 20.63168 -70.93320 37039 ft 473 kts 148°
2026-05-08 17:21 20.57563 -70.89712 37039 ft 473 kts 148°
2026-05-08 17:22 20.51927 -70.86087 37030 ft 473 kts 148°
2026-05-08 17:22 20.46289 -70.82463 37027 ft 473 kts 148°
2026-05-08 17:23 20.40536 -70.79136 37011 ft 472 kts 162°
2026-05-08 17:23 20.34273 -70.76981 37021 ft 473 kts 161°
2026-05-08 17:24 20.27988 -70.74811 37027 ft 474 kts 162°
2026-05-08 17:24 20.21749 -70.72674 37027 ft 474 kts 162°
2026-05-08 17:25 20.15471 -70.70527 37026 ft 474 kts 162°
2026-05-08 17:25 20.09470 -70.68476 37028 ft 473 kts 162°
2026-05-08 17:26 20.03190 -70.66331 37027 ft 474 kts 162°
2026-05-08 17:26 19.96906 -70.64187 37027 ft 473 kts 161°
2026-05-08 17:27 19.90668 -70.62060 37026 ft 473 kts 161°
2026-05-08 17:27 19.84395 -70.59923 37027 ft 473 kts 161°
2026-05-08 17:28 19.78112 -70.57784 37022 ft 473 kts 161°
2026-05-08 17:28 19.71812 -70.55739 37020 ft 473 kts 162°
2026-05-08 17:29 19.65506 -70.53706 37020 ft 473 kts 162°
2026-05-08 17:29 19.59208 -70.51675 37024 ft 473 kts 162°
2026-05-08 17:30 19.52935 -70.49653 37033 ft 473 kts 162°
2026-05-08 17:30 19.46631 -70.47623 37032 ft 473 kts 162°
2026-05-08 17:31 19.40324 -70.45594 37047 ft 473 kts 162°
2026-05-08 17:31 19.34020 -70.43567 37044 ft 473 kts 162°
2026-05-08 17:32 19.27710 -70.41540 37047 ft 473 kts 162°
2026-05-08 17:32 19.21448 -70.39530 37044 ft 473 kts 162°
2026-05-08 17:33 19.15143 -70.37508 37045 ft 473 kts 162°
2026-05-08 17:33 19.08842 -70.35489 37047 ft 473 kts 162°
2026-05-08 17:34 19.02558 -70.33477 37041 ft 474 kts 162°
2026-05-08 17:34 18.96244 -70.31457 37048 ft 474 kts 162°
2026-05-08 17:35 18.89926 -70.29437 37047 ft 474 kts 162°
2026-05-08 17:35 18.83613 -70.27421 37049 ft 474 kts 162°
2026-05-08 17:36 18.77327 -70.25414 37019 ft 474 kts 162°
2026-05-08 17:36 18.70999 -70.23396 37017 ft 474 kts 162°
2026-05-08 17:37 18.64668 -70.21378 37017 ft 475 kts 162°
2026-05-08 17:37 18.58340 -70.19363 37019 ft 475 kts 162°
2026-05-08 17:38 18.52011 -70.17349 37015 ft 475 kts 161°
2026-05-08 17:38 18.45721 -70.15345 37020 ft 476 kts 161°
2026-05-08 17:39 18.39405 -70.13268 37016 ft 476 kts 161°
2026-05-08 17:39 18.33075 -70.11193 37018 ft 476 kts 161°
2026-05-08 17:40 18.26750 -70.09122 37016 ft 476 kts 161°
2026-05-08 17:40 18.20419 -70.07050 37017 ft 477 kts 161°
2026-05-08 17:41 18.14081 -70.04979 37018 ft 477 kts 161°
2026-05-08 17:41 18.07742 -70.02908 37018 ft 477 kts 161°
2026-05-08 17:42 18.01401 -70.00838 37017 ft 477 kts 161°
2026-05-08 17:42 17.95102 -69.98784 37018 ft 477 kts 161°
2026-05-08 17:43 17.88751 -69.96714 37019 ft 477 kts 161°
2026-05-08 17:43 17.82406 -69.94661 37017 ft 477 kts 162°
2026-05-08 17:44 17.76023 -69.92742 37018 ft 477 kts 162°
2026-05-08 17:44 17.69644 -69.90812 37018 ft 477 kts 162°
2026-05-08 17:45 17.63309 -69.88896 37017 ft 477 kts 162°
2026-05-08 17:45 17.56930 -69.86967 37018 ft 477 kts 162°
2026-05-08 17:46 17.50545 -69.85039 37016 ft 477 kts 162°
2026-05-08 17:46 17.44156 -69.83110 37018 ft 478 kts 162°
2026-05-08 17:47 17.37764 -69.81182 37016 ft 477 kts 162°
2026-05-08 17:47 17.32452 -69.79580 37018 ft 477 kts 162°
2026-05-08 17:48 17.25041 -69.77348 37017 ft 477 kts 162°
2026-05-08 17:48 17.18653 -69.75425 37018 ft 477 kts 162°
2026-05-08 17:49 17.12273 -69.73506 37017 ft 476 kts 162°
2026-05-08 17:49 17.05896 -69.71589 37018 ft 476 kts 162°
2026-05-08 17:50 16.99559 -69.69686 37017 ft 476 kts 162°
2026-05-08 17:50 16.93182 -69.67772 37018 ft 476 kts 162°
2026-05-08 17:51 16.86806 -69.65859 37018 ft 476 kts 162°
2026-05-08 17:51 16.81511 -69.64273 37026 ft 476 kts 162°
2026-05-08 17:52 16.74118 -69.62058 37027 ft 475 kts 162°
2026-05-08 17:53 16.64567 -69.59205 37019 ft 475 kts 162°
2026-05-08 17:53 16.59275 -69.57626 37018 ft 475 kts 162°
2026-05-08 17:54 16.52917 -69.55730 37017 ft 475 kts 162°
2026-05-08 17:54 16.46544 -69.53831 37018 ft 475 kts 162°
2026-05-08 17:55 16.40181 -69.51936 37017 ft 475 kts 162°
2026-05-08 17:55 16.33850 -69.50052 37018 ft 475 kts 162°
2026-05-08 17:56 16.27487 -69.48160 37018 ft 475 kts 162°
2026-05-08 17:56 16.21116 -69.46266 37018 ft 476 kts 162°
2026-05-08 17:57 16.14744 -69.44374 37014 ft 476 kts 162°
2026-05-08 17:57 16.08416 -69.42496 37009 ft 475 kts 162°
2026-05-08 17:58 16.02050 -69.40607 37009 ft 475 kts 162°
2026-05-08 17:58 15.98807 -69.39933 36994 ft 476 kts 175°
2026-05-08 17:58 15.95489 -69.39731 37006 ft 477 kts 175°
2026-05-08 17:59 15.88847 -69.39246 37010 ft 477 kts 175°
2026-05-08 17:59 15.82263 -69.38796 37008 ft 477 kts 175°
2026-05-08 18:00 15.75632 -69.38346 37006 ft 477 kts 175°
2026-05-08 18:00 15.65664 -69.37671 37000 ft 478 kts 175°
2026-05-08 18:01 15.59014 -69.37221 36999 ft 478 kts 175°
2026-05-08 18:01 15.52366 -69.36771 36999 ft 478 kts 175°
2026-05-08 18:02 15.45759 -69.36325 36998 ft 478 kts 175°
2026-05-08 18:02 15.39106 -69.35875 36998 ft 479 kts 175°
2026-05-08 18:03 15.32454 -69.35426 36990 ft 478 kts 175°
2026-05-08 18:03 15.25842 -69.34980 36990 ft 479 kts 175°
2026-05-08 18:04 15.19182 -69.34531 36991 ft 480 kts 175°
2026-05-08 18:04 15.12514 -69.34081 36989 ft 480 kts 175°
2026-05-08 18:05 15.05850 -69.33633 36988 ft 480 kts 175°
2026-05-08 18:05 14.99186 -69.33184 36979 ft 480 kts 175°
2026-05-08 18:06 14.92516 -69.32736 36983 ft 479 kts 175°
2026-05-08 18:06 14.85929 -69.32293 36973 ft 476 kts 175°
2026-05-08 18:07 14.79315 -69.31848 36971 ft 476 kts 175°
2026-05-08 18:07 14.72692 -69.31404 36971 ft 477 kts 175°
2026-05-08 18:08 14.66074 -69.30960 36971 ft 476 kts 175°
2026-05-08 18:08 14.59447 -69.30516 36727 ft 476 kts 175°
2026-05-08 18:09 14.56147 -69.30295 36464 ft 475 kts 175°
2026-05-08 18:09 14.52848 -69.30073 36204 ft 475 kts 175°
2026-05-08 18:09 14.49525 -69.29851 35935 ft 477 kts 175°
2026-05-08 18:09 14.46203 -69.29628 35662 ft 480 kts 175°
2026-05-08 18:10 14.42855 -69.29404 35388 ft 483 kts 175°
2026-05-08 18:10 14.39530 -69.29181 35123 ft 485 kts 175°
2026-05-08 18:10 14.36155 -69.28956 34861 ft 486 kts 175°
2026-05-08 18:10 14.32777 -69.28730 34601 ft 487 kts 175°
2026-05-08 18:11 14.29396 -69.28504 34290 ft 484 kts 175°
2026-05-08 18:11 14.26027 -69.28278 33385 ft 487 kts 175°
2026-05-08 18:11 14.22612 -69.28051 32441 ft 493 kts 175°
2026-05-08 18:11 14.19238 -69.27825 31841 ft 489 kts 175°
2026-05-08 18:12 14.15867 -69.27601 31392 ft 483 kts 175°
2026-05-08 18:12 14.12529 -69.27377 30854 ft 478 kts 175°
2026-05-08 18:12 14.09211 -69.27156 30233 ft 477 kts 175°
2026-05-08 18:12 14.05907 -69.26935 29630 ft 475 kts 175°
2026-05-08 18:13 14.02618 -69.26716 29051 ft 472 kts 175°
2026-05-08 18:13 13.99348 -69.26498 28471 ft 469 kts 175°
2026-05-08 18:13 13.96095 -69.26281 27894 ft 467 kts 175°
2026-05-08 18:13 13.92860 -69.26065 27323 ft 465 kts 174°
2026-05-08 18:14 13.89638 -69.25850 26747 ft 462 kts 174°
2026-05-08 18:14 13.86436 -69.25637 26179 ft 460 kts 174°
2026-05-08 18:14 13.83254 -69.25425 25615 ft 457 kts 174°
2026-05-08 18:14 13.80128 -69.25217 25060 ft 455 kts 174°
2026-05-08 18:15 13.76980 -69.25008 24510 ft 452 kts 174°
2026-05-08 18:15 13.73850 -69.24799 23954 ft 449 kts 174°
2026-05-08 18:15 13.70738 -69.24592 23419 ft 446 kts 174°
2026-05-08 18:15 13.67650 -69.24387 22888 ft 443 kts 174°
2026-05-08 18:16 13.64577 -69.24183 22352 ft 440 kts 174°
2026-05-08 18:16 13.61527 -69.23980 21829 ft 437 kts 174°
2026-05-08 18:16 13.58500 -69.23779 21323 ft 433 kts 174°
2026-05-08 18:16 13.55503 -69.23580 20821 ft 430 kts 174°
2026-05-08 18:17 13.52531 -69.23383 20324 ft 426 kts 174°
2026-05-08 18:17 13.49625 -69.23190 19850 ft 422 kts 174°
2026-05-08 18:17 13.46708 -69.22996 19383 ft 418 kts 174°
2026-05-08 18:17 13.43818 -69.22804 18921 ft 413 kts 174°
2026-05-08 18:18 13.40963 -69.22615 18469 ft 409 kts 174°
2026-05-08 18:18 13.38132 -69.22427 18012 ft 405 kts 174°
2026-05-08 18:18 13.35331 -69.22241 17564 ft 401 kts 174°
2026-05-08 18:18 13.32556 -69.22057 17120 ft 397 kts 174°
2026-05-08 18:19 13.29815 -69.21875 16682 ft 394 kts 174°
2026-05-08 18:19 13.27085 -69.21695 16245 ft 390 kts 174°
2026-05-08 18:19 13.24394 -69.21516 15813 ft 386 kts 174°
2026-05-08 18:19 13.21721 -69.21339 15380 ft 383 kts 174°
2026-05-08 18:20 13.19072 -69.21164 14958 ft 380 kts 174°
2026-05-08 18:20 13.16451 -69.20990 14536 ft 376 kts 174°
2026-05-08 18:20 13.13880 -69.20820 14118 ft 373 kts 174°
2026-05-08 18:20 13.11297 -69.20649 13701 ft 370 kts 174°
2026-05-08 18:21 13.08733 -69.20479 13281 ft 367 kts 174°
2026-05-08 18:21 13.06187 -69.20311 12870 ft 364 kts 174°
2026-05-08 18:21 13.03660 -69.20144 12458 ft 362 kts 174°
2026-05-08 18:21 13.01158 -69.19978 12056 ft 359 kts 174°
2026-05-08 18:22 12.98678 -69.19814 11637 ft 356 kts 174°
2026-05-08 18:22 12.96247 -69.19654 11238 ft 353 kts 174°
2026-05-08 18:22 12.93794 -69.19491 10836 ft 351 kts 174°
2026-05-08 18:22 12.91378 -69.19332 10628 ft 342 kts 174°
2026-05-08 18:23 12.89040 -69.19177 10460 ft 332 kts 174°
2026-05-08 18:23 12.86762 -69.19027 10304 ft 323 kts 174°
2026-05-08 18:23 12.84565 -69.18881 10154 ft 308 kts 174°
2026-05-08 18:23 12.82474 -69.18744 10027 ft 294 kts 174°
2026-05-08 18:24 12.80477 -69.18612 9811 ft 288 kts 174°
2026-05-08 18:24 12.78487 -69.18481 9565 ft 284 kts 174°
2026-05-08 18:24 12.76504 -69.18350 9347 ft 285 kts 174°
2026-05-08 18:24 12.74517 -69.18219 9117 ft 285 kts 174°
2026-05-08 18:25 12.72543 -69.18089 8872 ft 284 kts 174°
2026-05-08 18:25 12.70576 -69.17960 8638 ft 283 kts 174°
2026-05-08 18:25 12.68617 -69.17831 8403 ft 281 kts 174°
2026-05-08 18:25 12.66694 -69.17704 8179 ft 280 kts 173°
2026-05-08 18:26 12.64754 -69.17577 7933 ft 279 kts 174°
2026-05-08 18:26 12.62819 -69.17449 7704 ft 278 kts 174°
2026-05-08 18:26 12.60891 -69.17323 7467 ft 276 kts 173°
2026-05-08 18:26 12.58979 -69.17197 7246 ft 275 kts 173°
2026-05-08 18:27 12.57074 -69.17072 7002 ft 274 kts 173°
2026-05-08 18:27 12.55818 -69.16989 6862 ft 273 kts 173°
2026-05-08 18:27 12.53279 -69.16842 6519 ft 272 kts 174°
2026-05-08 18:27 12.51396 -69.16734 6302 ft 270 kts 173°
2026-05-08 18:28 12.49526 -69.16626 6070 ft 269 kts 173°
2026-05-08 18:28 12.47662 -69.16519 5845 ft 267 kts 173°
2026-05-08 18:28 12.45827 -69.16413 5627 ft 266 kts 173°
2026-05-08 18:28 12.43982 -69.16307 5409 ft 265 kts 173°
2026-05-08 18:29 12.42154 -69.16201 5183 ft 261 kts 173°
2026-05-08 18:29 12.40355 -69.16098 4967 ft 252 kts 173°
2026-05-08 18:29 12.38650 -69.16000 4777 ft 239 kts 173°
2026-05-08 18:29 12.37028 -69.15907 4601 ft 229 kts 172°
2026-05-08 18:30 12.35472 -69.15817 4370 ft 216 kts 172°
2026-05-08 18:30 12.34026 -69.15734 4183 ft 200 kts 172°
2026-05-08 18:30 12.32678 -69.15655 4004 ft 191 kts 171°
2026-05-08 18:30 12.31351 -69.15579 3878 ft 191 kts 172°
2026-05-08 18:31 12.30039 -69.15503 3727 ft 191 kts 171°
2026-05-08 18:31 12.28711 -69.15432 3607 ft 191 kts 171°
2026-05-08 18:31 12.27392 -69.15355 3362 ft 187 kts 171°
2026-05-08 18:31 12.26135 -69.15282 3184 ft 174 kts 171°
2026-05-08 18:32 12.24953 -69.15214 3053 ft 168 kts 170°
2026-05-08 18:32 12.23859 -69.14950 2897 ft 157 kts 141°
2026-05-08 18:32 12.23165 -69.14145 2780 ft 151 kts 118°
2026-05-08 18:32 12.22708 -69.13178 2704 ft 152 kts 109°
2026-05-08 18:33 12.22381 -69.12150 2587 ft 153 kts 105°
2026-05-08 18:33 12.22107 -69.11098 2472 ft 153 kts 102°
2026-05-08 18:33 12.21866 -69.10044 2364 ft 153 kts 101°
2026-05-08 18:33 12.21643 -69.09014 2231 ft 145 kts 101°
2026-05-08 18:34 12.21436 -69.08033 2138 ft 142 kts 100°
2026-05-08 18:34 12.21225 -69.07063 2001 ft 140 kts 101°
2026-05-08 18:34 12.21018 -69.06080 1814 ft 142 kts 102°
2026-05-08 18:34 12.20773 -69.05089 1542 ft 149 kts 103°
2026-05-08 18:35 12.20546 -69.04061 1430 ft 146 kts 98°
2026-05-08 18:35 12.20362 -69.03060 1229 ft 142 kts 100°
2026-05-08 18:35 12.20165 -69.02054 1008 ft 147 kts 100°
2026-05-08 18:35 12.19957 -69.01017 814 ft 149 kts 101°
2026-05-08 18:36 12.19732 -69.00003 640 ft 144 kts 99°
2026-05-08 18:36 12.19519 -68.99002 427 ft 146 kts 100°
2026-05-08 18:36 12.19311 -68.97985 251 ft 147 kts 101°
2026-05-08 18:36 12.19098 -68.96976 90 ft 143 kts 100°
2026-05-08 18:37 12.18904 -68.96036 46 ft 117 kts 103°
2026-05-08 18:37 12.18787 -68.95488 43 ft 43 kts 102°
2026-05-08 18:37 12.18734 -68.95391 44 ft 3 kts 183°
2026-05-08 18:37 12.18696 -68.95399 44 ft 10 kts 197°
2026-05-08 18:38 12.18620 -68.95436 45 ft 13 kts 239°
2026-05-08 18:38 12.18621 -68.95533 45 ft 15 kts 284°
2026-05-08 18:38 12.18630 -68.95590 45 ft 0 kts 276°
2026-05-08 18:38 12.18621 -68.95599 44 ft 4 kts 210°
2026-05-08 18:39 12.18593 -68.95592 42 ft 8 kts 158°
2026-05-08 18:39 12.18528 -68.95576 46 ft 2 kts 189°
2026-05-08 18:39 12.18525 -68.95576 46 ft 0 kts 190°